SCP
0 0 0 1 1 0 0 0 0 0 0 1 1 2 3 3 4 6 9 11 11 10 10 9 8 7 6 6 6 7 6 5 5 5 4 2 2 2 2 2 2 2 2 2
0 0 0 1 1 1 0 0 0 1 1 1 2 3 4 4 4 5 7 9 10 11 10 9 8 7 6 6 6 7 7 6 5 4 3 2 2 2 2 2 2 2 2 2
0 0 0 1 1 1 1 1 1 1 2 3 3 4 4 4 4 4 5 7 9 11 11 10 8 7 6 6 6 6 6 5 4 4 3 2 2 2 2 2 2 2 2 3
0 0 0 1 2 2 3 3 2 2 3 3 4 4 4 4 4 4 4 6 8 10 10 9 8 7 7 6 6 5 5 4 4 3 3 2 2 2 2 2 2 2 3 4
0 0 1 1 2 3 4 4 4 3 3 3 4 5 5 4 4 5 6 7 10 11 11 10 9 8 7 6 5 4 4 4 3 3 3 2 2 2 1 1 2 2 3 3
0 1 1 1 2 3 3 4 4 5 4 4 5 7 7 6 6 7 8 10 12 13 12 10 8 7 6 6 5 4 4 3 3 3 3 2 2 2 2 2 2 2 2 2
1 1 1 1 2 3 2 3 5 6 5 5 6 7 8 8 8 8 8 10 12 11 10 8 6 6 5 6 5 4 4 3 3 3 3 2 2 2 2 2 2 2 2 2
1 1 1 2 2 2 2 3 5 6 6 7 8 10 10 9 8 7 7 9 9 8 7 6 5 5 5 5 5 5 4 3 3 2 2 2 2 2 2 2 2 2 3 3
1 1 1 1 2 2 2 3 4 5 7 9 11 12 11 10 7 6 7 8 9 8 6 5 4 4 4 4 4 4 4 3 3 3 2 2 2 2 3 3 2 2 3 3
1 1 1 1 2 2 3 3 4 5 6 9 12 12 11 9 7 6 8 10 11 10 7 5 4 3 3 3 3 3 3 3 3 3 3 3 2 2 3 3 2 2 2 2
1 1 1 2 2 2 3 4 4 5 6 9 11 12 11 9 7 6 8 10 11 10 8 5 3 3 3 3 4 4 3 3 3 3 3 2 2 2 2 2 1 1 1 1
1 1 1 1 2 2 3 3 4 6 8 10 11 11 10 8 7 7 8 8 8 7 6 4 3 3 4 5 5 5 4 3 2 2 2 1 1 1 1 1 0 0 0 1
1 1 1 1 2 2 2 3 4 7 9 11 12 11 10 8 8 8 8 7 6 6 5 4 4 3 4 5 5 4 3 3 2 2 1 1 1 1 0 0 0 0 0 0
1 1 1 2 2 2 2 3 6 9 10 11 11 11 9 8 8 8 8 8 7 7 6 5 5 4 4 4 4 3 2 2 2 1 1 1 1 1 0 0 0 0 0 0
1 1 1 1 1 2 3 5 8 10 11 10 10 9 8 7 8 8 9 9 8 7 6 6 5 4 3 3 3 2 2 1 1 1 1 1 1 1 0 0 0 0 0 0
1 1 1 1 1 2 5 7 9 9 9 8 7 6 5 5 5 6 7 7 7 5 4 4 4 3 2 2 2 1 1 1 1 1 1 1 1 1 0 0 0 0 0 0
1 1 1 1 1 2 5 7 7 7 6 5 5 4 3 3 3 3 4 4 3 2 2 2 2 1 1 1 1 1 1 0 1 1 1 1 1 0 0 0 0 0 0 0
1 1 0 0 1 2 4 5 5 5 4 4 3 3 2 2 2 2 2 1 1 1 1 0 0 0 1 0 0 0 0 0 1 1 1 1 0 0 0 0 0 0 0 0
1 1 0 0 0 1 2 3 3 3 4 3 3 2 2 1 1 1 1 1 0 0 0 0 0 1 1 0 0 0 0 0 0 0 0 0 0 0 0 0 0 0 0 0
1 0 0 0 0 0 1 1 1 2 3 3 3 3 2 2 2 1 1 1 0 0 0 0 0 0 0 0 0 0 0 0 0 0 0 0 0 0 0 0 0 0 0 0
0 0 0 0 0 0 0 0 0 1 1 2 2 2 2 2 2 1 1 1 1 0 0 0 0 0 0 0 0 0 0 0 0 0 0 0 0 0 0 0 0 0 0 0
0 0 0 0 0 0 0 0 0 0 1 1 1 1 1 1 1 1 1 1 0 0 0 0 0 0 0 0 0 0 0 0 0 0 0 0 0 0 0 0 0 0 0 0
0 0 0 0 0 0 0 0 0 0 0 0 0 0 0 0 0 0 0 0 0 0 0 0 0 0 0 0 0 0 0 0 0 0 0 0 0 0 0 0 0 0 0 0
0 0 0 0 0 0 0 0 0 0 0 0 0 0 0 0 0 0 0 0 0 0 0 0 0 0 0 0 0 0 0 0 0 0 0 0 0 0 0 0 0 0 0 0
0 0 0 0 0 0 0 0 0 0 0 0 0 0 0 0 0 0 0 0 0 0 0 0 0 0 0 0 0 0 0 0 0 0 0 0 0 0 0 0 0 0 0 0
0 0 0 0 0 0 0 0 0 0 0 0 0 0 0 0 0 0 0 0 0 0 0 0 0 0 0 0 0 0 0 0 0 0 0 0 0 0 0 0 0 0 0 0
0 0 0 0 0 0 0 0 0 0 0 0 0 0 0 0 0 0 0 0 0 0 0 0 0 0 0 0 0 0 0 0 0 0 0 0 0 0 0 0 0 0 0 0
Wind_Speed
4 3 2 3 4 3 4 7 7 8 8 9 6 5 4 4 6 6 7 6 7 7 6 6 6 6 6 6 6 6 7 8 8 8 7 7 7 6 6 6 7 6 6 5
2 3 3 4 4 3 3 4 4 4 6 5 2 3 4 5 7 6 6 7 7 7 6 6 6 6 5 5 6 6 7 7 6 6 6 7 7 6 6 6 5 5 6 5
2 4 3 4 4 2 1 1 5 6 7 3 4 4 5 6 6 6 6 6 6 7 6 6 6 6 6 5 5 6 6 6 6 6 7 6 7 6 6 5 5 5 5 4
1 2 3 7 3 0 1 1 1 3 4 6 7 5 3 4 6 5 4 5 5 5 5 4 4 4 5 5 5 5 5 5 6 6 6 6 6 6 5 4 4 4 4 4
3 2 4 6 2 0 1 3 2 3 3 5 7 7 4 2 5 5 4 5 5 5 5 4 4 5 5 5 4 4 4 5 5 6 7 6 6 5 4 4 4 3 3 4
3 2 5 6 4 3 3 2 2 4 5 6 6 5 2 2 5 5 4 4 5 5 5 5 4 5 6 5 4 4 3 4 4 5 6 6 6 5 3 3 3 3 2 2
3 2 5 6 5 2 4 5 3 4 6 6 4 5 6 6 6 6 5 5 6 7 6 4 4 6 6 5 4 3 4 4 4 4 5 5 5 4 4 4 4 3 2 1
4 3 7 5 2 3 4 3 2 3 5 6 7 7 7 7 7 7 7 6 6 7 5 4 4 6 5 4 3 4 5 5 4 4 4 4 5 5 5 5 4 3 2 1
6 7 6 2 1 2 2 2 1 3 6 10 9 8 6 6 6 6 7 6 5 6 6 4 3 4 5 3 3 5 5 5 5 5 4 4 5 5 5 4 3 2 2 1
1 2 3 2 2 3 2 3 3 5 7 8 9 8 7 6 6 5 6 6 6 7 6 4 3 4 3 4 5 6 6 5 5 5 5 5 4 4 4 3 3 2 2 1
0 2 3 4 3 2 4 5 7 6 7 8 9 9 8 7 6 6 6 6 6 7 6 5 4 4 4 4 6 6 6 6 5 5 5 6 6 5 4 3 2 3 2 2
3 4 2 2 2 3 5 5 5 7 8 7 8 9 8 7 7 7 7 6 6 6 6 5 5 5 4 4 6 7 6 5 4 4 5 6 7 7 11 9 10 9 7 5
3 2 1 1 2 3 5 5 5 8 8 8 7 8 9 8 7 7 7 7 7 6 6 5 5 5 4 4 6 6 6 5 4 5 5 5 5 7 7 8 12 12 10 10
1 1 2 2 4 4 5 7 8 8 8 8 8 8 9 9 9 8 7 6 6 6 6 5 6 5 3 4 6 6 6 6 6 5 5 5 5 5 6 6 6 6 8 10
3 1 3 5 5 4 4 8 10 9 9 9 8 8 9 10 9 8 7 7 7 7 6 6 6 5 5 6 7 6 5 4 5 5 5 6 6 6 6 7 6 5 5 6
2 4 5 7 6 5 6 8 9 9 9 9 8 8 8 9 9 8 7 7 7 7 6 6 6 5 5 6 7 6 6 9 8 6 6 6 6 6 6 6 6 5 5 4
4 4 4 6 5 6 6 6 7 8 9 9 9 9 9 10 9 9 8 7 7 6 6 6 6 5 6 6 6 5 5 7 10 8 7 6 6 6 6 6 6 5 5 5
3 4 5 6 6 7 7 8 8 8 9 9 9 9 9 9 9 8 7 7 7 8 7 6 5 6 6 6 6 5 6 6 6 7 7 7 7 6 6 6 7 6 5 6
6 6 6 6 6 7 8 8 7 8 8 8 8 8 8 8 8 8 7 8 7 7 5 5 7 7 7 7 7 6 7 7 7 7 7 8 7 6 6 6 6 6 5 6
7 7 8 8 8 9 9 8 8 8 7 8 9 10 9 8 7 8 9 7 4 3 3 5 6 6 6 7 8 6 7 8 8 7 7 7 7 7 6 6 6 6 6 6
7 8 9 9 9 8 8 8 9 8 7 8 10 9 9 7 7 7 7 6 4 4 6 7 5 5 5 7 9 7 7 8 7 7 7 7 7 7 6 6 6 6 6 5
6 8 9 9 9 8 7 8 9 9 9 9 9 9 9 8 8 7 6 4 3 6 5 5 5 7 9 9 7 7 8 8 7 6 6 6 6 6 6 6 6 6 5 5
6 7 8 8 9 9 9 8 9 9 9 8 8 8 8 6 5 6 4 2 4 7 6 5 8 11 12 8 7 7 8 8 7 6 6 6 6 6 6 6 6 6 6 5
7 7 7 8 9 10 9 8 8 7 8 8 7 7 6 6 5 4 4 6 8 9 6 8 12 12 11 7 7 7 7 7 6 6 6 6 6 6 6 6 6 6 6 7
8 8 8 8 8 7 7 8 8 8 8 6 7 6 5 4 5 4 5 6 9 9 7 9 12 11 8 7 7 7 6 6 6 6 6 6 6 6 6 6 6 6 5 5
7 6 6 6 6 5 5 6 6 5 6 6 5 5 4 4 5 5 5 6 8 8 6 5 6 8 6 7 7 7 6 7 7 7 7 6 7 6 6 6 7 5 5 5
7 6 5 6 5 5 5 5 6 6 5 6 6 4 4 5 5 5 6 5 6 6 5 5 5 5 6 6 6 6 6 6 6 6 6 6 6 5 6 7 5 5 4 4
Wind_Direction
218 250 288 268 265 222 172 179 188 218 211 229 217 188 166 137 123 124 135 144 151 156 160 161 162 171 174 181 184 185 185 191 199 198 194 189 185 181 180 182 184 180 180 187
323 325 312 291 297 273 226 193 186 184 226 229 185 128 123 130 131 135 141 151 156 154 149 153 159 166 171 183 186 177 182 194 194 188 183 182 178 171 170 176 177 173 180 184
291 317 4 292 271 246 241 219 166 191 225 173 135 141 152 150 144 147 144 150 155 156 158 162 166 167 173 179 171 174 184 190 186 181 175 178 174 165 170 172 174 182 184 180
125 46 224 241 250 219 110 1 142 180 184 157 144 140 139 147 137 136 145 152 154 151 150 154 156 158 161 153 156 166 174 180 177 170 164 161 158 164 171 169 173 182 180 177
120 175 270 290 305 50 115 319 350 111 127 138 132 92 51 79 123 126 142 146 145 145 141 134 139 144 135 134 141 146 158 165 167 159 154 153 161 168 168 163 168 168 170 173
133 167 223 247 278 269 120 278 304 131 143 148 128 119 181 137 113 104 101 105 112 108 101 106 122 127 127 133 132 141 151 147 145 145 150 155 160 154 142 143 147 142 139 160
172 207 261 265 293 50 131 220 260 154 148 144 139 166 159 132 104 101 102 101 106 104 102 106 111 118 126 131 143 150 133 120 122 135 143 143 139 133 127 124 119 121 124 121
166 194 248 291 16 121 211 244 227 147 127 111 106 114 122 116 106 101 102 104 105 103 101 100 106 115 120 136 147 127 121 118 118 121 130 130 126 127 127 128 125 132 130 113
182 208 238 268 163 210 177 162 153 130 121 120 117 119 114 108 106 102 114 111 108 110 104 92 94 111 125 131 120 114 112 114 113 107 101 114 124 127 127 130 135 143 137 136
140 264 291 340 27 21 66 105 88 109 114 115 117 118 114 107 108 98 95 97 101 100 98 88 80 88 113 117 113 113 113 112 108 106 99 90 92 104 116 122 135 137 138 148
48 296 352 350 23 70 75 79 86 92 101 108 112 106 113 111 105 103 99 95 99 101 98 89 79 74 82 102 106 106 107 108 108 106 105 92 78 65 82 74 98 127 129 133
231 238 197 272 330 72 90 99 106 105 96 95 105 106 107 105 101 100 101 99 96 94 92 84 79 73 74 96 111 115 110 106 108 108 105 105 103 82 59 66 66 68 71 88
230 255 189 186 43 60 91 101 103 107 110 107 102 106 108 105 98 95 92 93 95 95 93 89 80 68 62 89 101 106 112 114 112 111 115 117 117 114 100 67 60 60 61 68
259 94 75 102 87 71 90 104 103 99 97 103 105 100 102 101 98 96 93 91 91 90 85 84 80 68 60 83 94 97 102 107 110 110 113 116 117 114 112 109 91 65 52 61
348 70 127 102 86 85 94 106 105 102 99 97 98 100 102 104 104 100 96 92 89 84 79 78 75 66 63 79 90 93 95 101 102 102 100 103 105 105 104 102 98 92 80 62
60 75 91 92 87 85 89 102 109 108 105 101 97 99 101 102 102 96 90 89 90 86 80 78 75 69 73 81 87 88 90 97 102 102 99 99 99 100 101 100 97 92 85 78
117 109 107 103 95 97 98 101 108 110 105 101 103 108 105 101 97 92 85 80 83 82 77 78 75 70 74 80 88 94 95 95 95 95 95 97 98 99 100 99 97 91 82 78
117 124 124 122 116 107 101 98 100 104 105 105 104 104 104 105 105 103 97 87 79 70 63 67 74 73 71 75 84 91 93 93 94 95 96 95 96 97 100 100 100 98 90 80
95 100 103 111 119 115 107 100 101 102 106 110 108 104 102 101 101 97 94 89 84 76 55 59 74 75 74 76 86 92 96 96 94 93 95 98 95 92 93 95 95 94 93 89
88 94 95 96 99 104 103 99 101 100 105 112 109 104 100 96 97 94 87 79 69 83 79 72 74 76 78 83 88 90 94 97 98 97 95 95 95 92 91 93 95 94 91 91
92 95 98 97 93 91 93 100 105 103 103 105 106 106 102 95 90 89 89 81 53 68 79 78 76 76 79 88 88 89 92 94 96 97 98 97 95 92 91 92 93 93 92 90
96 99 97 96 96 94 93 99 103 104 102 100 101 102 101 96 90 82 73 82 82 82 79 72 75 82 88 88 87 90 92 93 93 94 96 98 98 97 95 94 93 91 90 89
93 95 96 96 97 96 92 92 97 102 102 101 102 102 102 99 96 100 89 60 78 84 82 79 86 87 90 88 88 90 92 94 95 95 97 99 99 100 99 95 91 90 91 90
103 101 100 100 98 97 95 93 92 93 94 94 93 98 103 101 88 80 98 95 91 91 87 87 86 86 86 86 89 90 90 92 94 96 96 97 96 94 93 93 92 89 88 89
104 103 102 102 100 100 103 100 95 91 90 88 84 81 82 94 104 101 95 95 96 92 88 84 85 87 88 91 91 91 90 91 95 95 92 94 94 93 92 92 93 93 90 87
99 97 96 100 104 104 104 103 102 102 102 98 88 83 86 89 95 93 89 90 91 90 86 82 84 85 88 90 91 91 90 89 88 87 90 91 91 92 93 93 93 93 92 91
94 92 94 93 90 92 96 101 104 103 105 109 105 97 94 93 92 89 88 88 89 87 86 85 85 87 88 86 85 84 84 85 86 87 89 88 89 91 93 95 94 92 91 89